KK2Z-13 Weather Reports


time (UTC)temp
F
wind
direction
speed
knots
gust
knots
rain 1hr
in
rain 24hr
in
rain mn
in
humidity
%
barometer
mb
20260906234618 90 168 0.9 6.1 0.00 0.00 0.00 51 1008.6
20260906233019 90 161 0.0 5.2 0.00 0.00 0.00 51 1008.5
20260906231518 90 162 0.0 3.5 0.00 0.00 0.00 50 1008.4
20260906230015 90 234 2.6 8.7 0.00 0.00 0.00 52 1008.5
20260906224515 91 165 0.9 8.7 0.00 0.00 0.00 49 1008.6
20260906223020 90 142 3.5 10.4 0.00 0.00 0.00 48 1008.6
20260906221518 92 212 0.9 7.0 0.00 0.00 0.00 47 1008.8
20260906220030 91 138 3.5 10.4 0.00 0.00 0.00 48 1008.9
20260906214517 91 123 6.1 11.3 0.00 0.00 0.00 50 1009.0
20260906213012 90 163 0.9 6.1 0.00 0.00 0.00 49 1009.2
20260906211510 91 188 1.7 7.8 0.00 0.00 0.00 50 1009.3
20260906210007 92 149 1.7 7.8 0.00 0.00 0.00 47 1009.4
20260906204505 91 271 1.7 9.6 0.00 0.00 0.00 48 1009.7
20260906203009 92 162 3.5 7.0 0.00 0.00 0.00 46 1009.8
20260906201501 91 225 0.9 4.3 0.00 0.00 0.00 47 1010.0
20260906200057 90 150 0.9 5.2 0.00 0.00 0.00 49 1010.3
20260906194604 89 195 0.0 6.1 0.00 0.00 0.00 50 1010.5
20260906193055 89 155 0.0 5.2 0.00 0.00 0.00 49 1010.6
20260906191606 89 153 0.0 1.7 0.00 0.00 0.00 51 1010.7
20260906190050 88 222 0.0 1.7 0.00 0.00 0.00 53 1010.9
20260906184553 87 279 0.9 6.1 0.00 0.00 0.00 54 1011.1
20260906183048 87 224 0.0 5.2 0.00 0.00 0.00 52 1011.2
20260906181559 87 152 0.0 2.6 0.00 0.00 0.00 53 1011.4
20260906180043 86 238 3.5 7.0 0.00 0.00 0.00 55 1011.7
20260906174540 85 206 0.0 7.8 0.00 0.00 0.00 59 1012.0
20260906173039 84 231 1.7 7.8 0.00 0.00 0.00 60 1012.3
20260906171538 83 148 0.9 3.5 0.00 0.00 0.00 60 1012.5
20260906170036 82 158 0.0 4.3 0.00 0.00 0.00 62 1012.8
20260906164536 83 142 3.5 7.8 0.00 0.00 0.00 63 1012.7
20260906163044 84 132 0.0 4.3 0.00 0.00 0.00 64 1012.7
20260906161534 83 190 0.9 1.7 0.00 0.00 0.00 65 1012.7
20260906160028 81 229 0.0 0.9 0.00 0.00 0.00 71 1012.7
20260906154525 80 360 0.9 4.3 0.00 0.00 0.00 73 1012.7
20260906153025 79 360 1.7 4.3 0.00 0.00 0.00 77 1012.4
20260906151522 79 360 0.0 3.5 0.00 0.00 0.00 78 1012.2
20260906150028 78 360 0.9 5.2 0.00 0.00 0.00 79 1012.2
20260906144521 78 360 1.7 4.3 0.00 0.00 0.00 79 1012.1
20260906143021 78 360 1.7 5.2 0.00 0.00 0.00 79 1012.1
20260906141520 77 360 0.0 3.5 0.00 0.00 0.00 81 1011.8
20260906140019 77 360 0.0 0.9 0.00 0.00 0.00 81 1011.7
20260906134515 77 360 0.9 1.7 0.00 0.00 0.00 81 1011.5
20260906133013 77 360 0.0 2.6 0.00 0.00 0.00 83 1011.4
20260906131512 77 360 0.0 0.0 0.00 0.00 0.00 82 1011.1
20260906130010 76 360 0.0 0.0 0.00 0.00 0.00 82 1011.1
20260906124508 76 360 0.0 0.0 0.00 0.00 0.00 81 1010.9
20260906123012 76 360 0.0 0.0 0.00 0.00 0.00 81 1010.7
20260906121506 76 360 0.0 0.0 0.00 0.00 0.00 81 1010.4
20260906120004 76 360 0.0 0.0 0.00 0.00 0.00 80 1010.1
20260906114514 76 360 0.0 0.0 0.00 0.00 0.00 80 1010.0
20260906113003 76 360 0.0 0.0 0.00 0.00 0.00 80 1009.8
20260906111503 76 360 0.0 0.0 0.00 0.00 0.00 80 1009.9
20260906110004 76 360 0.0 1.7 0.00 0.00 0.00 80 1009.7
20260906104601 76 360 0.0 0.0 0.00 0.00 0.00 80 1009.5
20260906103100 77 360 0.0 1.7 0.00 0.00 0.00 80 1009.5
20260906101603 77 360 1.7 3.5 0.00 0.00 0.00 80 1009.4
20260906100057 77 360 0.0 1.7 0.00 0.00 0.00 79 1009.5
20260906094557 77 360 0.9 3.5 0.00 0.00 0.00 79 1009.4
20260906093055 78 360 1.7 5.2 0.00 0.00 0.00 78 1009.4
20260906091553 78 360 0.9 4.3 0.00 0.00 0.00 77 1009.5
20260906090050 79 360 2.6 7.0 0.00 0.00 0.00 76 1009.3
20260906084550 79 360 2.6 5.2 0.00 0.00 0.00 76 1009.3
20260906083049 79 360 3.5 7.8 0.00 0.00 0.00 76 1009.2
20260906081552 80 360 4.3 9.6 0.00 0.00 0.00 75 1009.3
20260906080046 80 360 5.2 9.6 0.00 0.00 0.00 75 1009.4
20260906074546 80 360 5.2 8.7 0.00 0.00 0.00 75 1009.6
20260906073045 80 360 1.7 7.0 0.00 0.00 0.00 75 1009.8
20260906071540 80 360 3.5 8.7 0.00 0.00 0.00 75 1009.9
20260906070039 80 360 1.7 4.3 0.00 0.00 0.00 75 1010.0
20260906064539 79 360 0.9 3.5 0.00 0.00 0.00 76 1010.2
20260906063035 79 360 1.7 4.3 0.00 0.00 0.00 75 1010.2
20260906061534 80 360 0.0 1.7 0.00 0.00 0.00 73 1010.2
20260906060036 80 360 0.0 2.6 0.00 0.00 0.00 73 1010.3
20260906054530 80 360 0.0 3.5 0.00 0.00 0.00 73 1010.4
20260906053032 80 360 0.0 0.9 0.00 0.00 0.00 73 1010.4
20260906051528 80 360 0.0 3.5 0.00 0.00 0.00 72 1010.6
20260906050025 80 360 0.9 3.5 0.00 0.00 0.00 71 1010.7
20260906044625 80 360 0.0 3.5 0.00 0.00 0.00 70 1010.7
20260906043026 81 360 0.9 4.3 0.00 0.00 0.00 68 1010.6
20260906041529 82 360 0.0 4.3 0.00 0.00 0.00 66 1010.4
20260906040032 82 360 4.3 9.6 0.00 0.00 0.00 65 1010.5
20260906034528 83 360 4.3 11.3 0.00 0.00 0.00 63 1010.6
20260906033022 84 360 9.6 13.0 0.00 0.00 0.00 61 1010.5
20260906031534 84 360 6.1 11.3 0.00 0.00 0.00 60 1010.3
20260906030021 85 360 6.1 11.3 0.00 0.00 0.00 60 1009.9
20260906024520 85 360 5.2 10.4 0.00 0.00 0.00 59 1009.7
20260906023020 85 360 5.2 12.2 0.00 0.00 0.00 58 1009.3
20260906021522 86 360 6.1 9.6 0.00 0.00 0.00 59 1009.2
20260906020019 86 360 4.3 7.8 0.00 0.00 0.00 58 1008.8
20260906014524 87 360 4.3 9.6 0.00 0.00 0.00 56 1008.6
20260906013119 87 137 3.5 9.6 0.00 0.00 0.00 55 1008.5
20260906011518 88 360 5.2 9.6 0.00 0.00 0.00 51 1008.3
20260906010017 90 126 0.9 4.3 0.00 0.00 0.00 45 1008.2
20260906004517 90 146 1.7 4.3 0.00 0.00 0.00 44 1008.3
20260906003017 91 150 0.9 6.1 0.00 0.00 0.00 42 1008.2
20260906001515 92 153 2.6 8.7 0.00 0.00 0.00 41 1008.4
20260906000016 92 119 4.3 7.8 0.00 0.00 0.00 41 1008.3